When you browse on this site, cookies collect data to enhance your experience and personalize the content and advertising you see.
Visit our Privacy Policy to learn more. By continuing to use the site, you agree to this use of cookies and data.
  • En España
  • Lista de países
  • Para 7 días
  • Temperatura del agua
  • El tiempo en el mapa
  • Informadores
  • user-avatar
    Iniciar sesión

    Tiempo cada hora Quilpué

    Hoy, 19 Febrero, Miércoles

    Tiempo Temperatura Precipitaciones Viento Presión Humedad
    00:00 +13°C° 0 mm 1 mps 747 mmHg 71%
    01:00 +12°C° 0 mm 1 mps 746 mmHg 71%
    02:00 +11°C° 0 mm 0 mps 746 mmHg 71%
    03:00 +11°C° 0 mm 0 mps 747 mmHg 71%
    04:00 +11°C° 0 mm 0 mps 747 mmHg 71%
    05:00 +14°C° 0 mm 0 mps 747 mmHg 62%
    06:00 +16°C° 0 mm 0 mps 747 mmHg 53%
    07:00 +21°C° 0 mm 1 mps 748 mmHg 45%
    08:00 +24°C° 0 mm 1 mps 748 mmHg 40%
    09:00 +27°C° 0 mm 2 mps 748 mmHg 35%
    10:00 +29°C° 0 mm 3 mps 748 mmHg 31%
    11:00 +30°C° 0 mm 3 mps 748 mmHg 31%
    12:00 +30°C° 0 mm 3 mps 748 mmHg 32%
    13:00 +30°C° 0 mm 3 mps 748 mmHg 32%
    14:00 +30°C° 0 mm 3 mps 747 mmHg 34%
    15:00 +29°C° 0 mm 3 mps 747 mmHg 36%
    16:00 +28°C° 0 mm 3 mps 747 mmHg 37%
    17:00 +24°C° 0 mm 2 mps 747 mmHg 51%
    18:00 +19°C° 0 mm 2 mps 747 mmHg 65%
    19:00 +15°C° 0 mm 1 mps 748 mmHg 79%
    20:00 +15°C° 0 mm 1 mps 747 mmHg 78%
    21:00 +15°C° 0 mm 1 mps 747 mmHg 77%
    22:00 +14°C° 0 mm 1 mps 747 mmHg 76%
    23:00 +14°C° 0 mm 1 mps 747 mmHg 75%

    Mañana, 20 Febrero, Jueves

    Tiempo Temperatura Precipitaciones Viento Presión Humedad
    00:00 +14°C° 0 mm 1 mps 746 mmHg 74%
    01:00 +14°C° 0 mm 1 mps 746 mmHg 73%
    02:00 +13°C° 0 mm 0 mps 746 mmHg 73%
    03:00 +13°C° 0 mm 0 mps 746 mmHg 73%
    04:00 +12°C° 0 mm 0 mps 746 mmHg 73%
    05:00 +16°C° 0 mm 1 mps 746 mmHg 66%
    06:00 +19°C° 0 mm 1 mps 746 mmHg 59%
    07:00 +22°C° 0 mm 1 mps 746 mmHg 53%
    08:00 +24°C° 0 mm 2 mps 746 mmHg 48%
    09:00 +27°C° 0 mm 3 mps 747 mmHg 42%
    10:00 +29°C° 0 mm 4 mps 747 mmHg 37%
    11:00 +29°C° 0 mm 4 mps 747 mmHg 38%
    12:00 +29°C° 0 mm 4 mps 747 mmHg 39%
    13:00 +29°C° 0 mm 5 mps 747 mmHg 39%
    14:00 +28°C° 0 mm 4 mps 747 mmHg 41%
    15:00 +28°C° 0 mm 4 mps 747 mmHg 44%
    16:00 +27°C° 0 mm 4 mps 747 mmHg 46%
    17:00 +22°C° 0 mm 3 mps 747 mmHg 60%
    18:00 +18°C° 0 mm 2 mps 748 mmHg 74%
    19:00 +15°C° 0 mm 1 mps 748 mmHg 88%
    20:00 +14°C° 0 mm 1 mps 748 mmHg 88%
    21:00 +14°C° 0 mm 1 mps 748 mmHg 88%
    22:00 +13°C° 0 mm 1 mps 748 mmHg 88%
    23:00 +12°C° 0 mm 0 mps 748 mmHg 88%

    Pasado mañana, 21 Febrero, Viernes

    Tiempo Temperatura Precipitaciones Viento Presión Humedad
    00:00 +12°C° 0 mm 0 mps 748 mmHg 88%
    01:00 +12°C° 0 mm 0 mps 748 mmHg 88%
    08:00 +21°C° 0 mm 2 mps 749 mmHg 61%
    09:00 +25°C° 0 mm 3 mps 749 mmHg 53%
    10:00 +27°C° 0 mm 3 mps 749 mmHg 44%
    11:00 +28°C° 0 mm 4 mps 749 mmHg 42%
    12:00 +28°C° 0 mm 4 mps 749 mmHg 39%
    13:00 +29°C° 0 mm 4 mps 749 mmHg 37%
    14:00 +28°C° 0 mm 4 mps 748 mmHg 38%
    15:00 +27°C° 0 mm 3 mps 748 mmHg 40%
    16:00 +27°C° 0 mm 3 mps 748 mmHg 42%
    17:00 +23°C° 0 mm 2 mps 748 mmHg 56%
    18:00 +19°C° 0 mm 1 mps 748 mmHg 71%
    19:00 +14°C° 0 mm 0 mps 748 mmHg 86%
    20:00 +13°C° 0 mm 0 mps 749 mmHg 86%
    21:00 +13°C° 0 mm 0 mps 749 mmHg 87%
    22:00 +12°C° 0 mm 0 mps 749 mmHg 87%
    23:00 +12°C° 0 mm 0 mps 749 mmHg 87%

    22 Febrero, Sábado

    Tiempo Temperatura Precipitaciones Viento Presión Humedad
    00:00 +12°C° 0 mm 0 mps 749 mmHg 86%
    01:00 +11°C° 0 mm 0 mps 749 mmHg 86%
    02:00 +11°C° 0 mm 0 mps 749 mmHg 86%
    03:00 +11°C° 0 mm 0 mps 749 mmHg 86%
    04:00 +12°C° 0 mm 1 mps 749 mmHg 86%
    05:00 +14°C° 0 mm 1 mps 749 mmHg 80%
    06:00 +16°C° 0 mm 1 mps 750 mmHg 73%
    07:00 +19°C° 0 mm 1 mps 750 mmHg 67%
    08:00 +21°C° 0 mm 2 mps 750 mmHg 58%
    09:00 +24°C° 0 mm 3 mps 750 mmHg 50%
    10:00 +27°C° 0 mm 3 mps 750 mmHg 41%
    11:00 +27°C° 0 mm 4 mps 750 mmHg 39%
    12:00 +28°C° 0 mm 4 mps 750 mmHg 38%
    13:00 +28°C° 0 mm 4 mps 750 mmHg 36%
    14:00 +28°C° 0 mm 3 mps 750 mmHg 39%
    15:00 +27°C° 0 mm 3 mps 749 mmHg 41%
    16:00 +26°C° 0 mm 3 mps 749 mmHg 44%
    17:00 +21°C° 0 mm 2 mps 749 mmHg 60%
    18:00 +19°C° 0 mm 1 mps 749 mmHg 76%
    19:00 +14°C° 0 mm 1 mps 749 mmHg 92%
    20:00 +13°C° 0 mm 1 mps 749 mmHg 92%
    21:00 +12°C° 0 mm 0 mps 749 mmHg 92%
    22:00 +11°C° 0 mm 0 mps 749 mmHg 92%
    23:00 +11°C° 0 mm 0 mps 749 mmHg 92%

    23 Febrero, Domingo

    Tiempo Temperatura Precipitaciones Viento Presión Humedad
    00:00 +11°C° 0 mm 0 mps 749 mmHg 92%
    01:00 +11°C° 0 mm 0 mps 748 mmHg 92%
    02:00 +10°C° 0 mm 0 mps 748 mmHg 92%
    03:00 +10°C° 0 mm 0 mps 748 mmHg 93%
    04:00 +10°C° 0 mm 0 mps 748 mmHg 93%
    05:00 +12°C° 0 mm 0 mps 749 mmHg 88%
    06:00 +14°C° 0 mm 0 mps 749 mmHg 82%
    07:00 +16°C° 0 mm 0 mps 750 mmHg 77%
    08:00 +20°C° 0 mm 1 mps 750 mmHg 67%
    09:00 +23°C° 0 mm 2 mps 750 mmHg 58%
    10:00 +25°C° 0 mm 3 mps 750 mmHg 49%
    11:00 +25°C° 0 mm 4 mps 750 mmHg 48%
    12:00 +26°C° 0 mm 4 mps 750 mmHg 48%
    13:00 +26°C° 0 mm 4 mps 750 mmHg 47%
    14:00 +25°C° 0 mm 4 mps 750 mmHg 50%
    15:00 +23°C° 0 mm 4 mps 750 mmHg 53%
    16:00 +22°C° 0 mm 3 mps 750 mmHg 55%
    17:00 +19°C° 0 mm 3 mps 750 mmHg 68%
    18:00 +16°C° 0 mm 2 mps 750 mmHg 80%
    19:00 +14°C° 0 mm 1 mps 751 mmHg 92%
    20:00 +13°C° 0 mm 1 mps 751 mmHg 93%
    21:00 +12°C° 0 mm 0 mps 751 mmHg 94%
    22:00 +11°C° 0 mm 0 mps 751 mmHg 95%
    23:00 +12°C° 0 mm 0 mps 751 mmHg 93%

    24 Febrero, Lunes

    Tiempo Temperatura Precipitaciones Viento Presión Humedad
    00:00 +12°C° 0 mm 0 mps 751 mmHg 92%
    01:00 +13°C° 0 mm 0 mps 751 mmHg 91%
    02:00 +12°C° 0 mm 0 mps 750 mmHg 91%
    03:00 +13°C° 0 mm 1 mps 750 mmHg 91%
    04:00 +13°C° 0 mm 1 mps 750 mmHg 91%
    05:00 +14°C° 0 mm 1 mps 750 mmHg 87%
    06:00 +15°C° 0 mm 1 mps 751 mmHg 82%
    07:00 +15°C° 0 mm 0 mps 751 mmHg 78%
    08:00 +19°C° 0 mm 1 mps 751 mmHg 67%
    09:00 +21°C° 0 mm 2 mps 751 mmHg 56%
    10:00 +25°C° 0 mm 3 mps 751 mmHg 45%
    11:00 +25°C° 0 mm 3 mps 751 mmHg 43%
    12:00 +26°C° 0 mm 3 mps 751 mmHg 41%
    13:00 +27°C° 0 mm 4 mps 751 mmHg 40%
    14:00 +26°C° 0 mm 4 mps 750 mmHg 42%
    15:00 +25°C° 0 mm 3 mps 750 mmHg 44%
    16:00 +24°C° 0 mm 3 mps 750 mmHg 47%
    17:00 +19°C° 0 mm 2 mps 750 mmHg 61%
    18:00 +16°C° 0 mm 2 mps 751 mmHg 76%
    19:00 +13°C° 0 mm 1 mps 751 mmHg 90%
    20:00 +12°C° 0 mm 1 mps 751 mmHg 91%
    21:00 +11°C° 0 mm 1 mps 751 mmHg 92%
    22:00 +11°C° 0 mm 1 mps 751 mmHg 93%
    23:00 +11°C° 0 mm 1 mps 751 mmHg 93%
    Mostrar más